Location: Oshawa
(43.9000°N, 78.8670°W)
Time: 01:31:56
(UTC-04:00)

CARTOSAT-1 - Visible Passes

Search period start: 18 April 2014 00:00
Search period end: 28 April 2014 00:00
Orbit: 617 x 620 km, 97.8° (Epoch: 17 April)

Date Brightness Start Highest point End Pass type
(mag) Time Alt. Az. Time Alt. Az. Time Alt. Az.
18 Apr 6.0 00:13:22 17° WNW 00:13:22 17° WNW 00:14:56 10° NW visible
18 Apr 4.4 22:53:04 42° NNE 22:53:04 42° NNE 22:56:16 10° N visible
19 Apr 6.4 00:30:12 12° WNW 00:30:12 12° WNW 00:30:54 10° NW visible
19 Apr 4.3 23:09:55 48° N 23:09:55 48° N 23:13:05 10° N visible
20 Apr 5.6 21:49:37 13° ENE 21:49:57 13° ENE 21:52:01 10° NNE visible
20 Apr 4.6 23:26:44 44° NW 23:26:44 44° NW 23:29:48 10° NNW visible
21 Apr 5.3 22:06:27 19° ENE 22:06:30 19° ENE 22:09:32 10° NNE visible
21 Apr 5.1 23:43:34 33° NW 23:43:34 33° NW 23:46:24 10° NNW visible
22 Apr 4.8 22:23:16 27° ENE 22:23:16 27° ENE 22:26:43 10° N visible
23 Apr 5.5 00:00:23 24° WNW 00:00:23 24° WNW 00:02:51 10° NW visible
23 Apr 4.4 22:40:05 38° NE 22:40:05 38° NE 22:43:43 10° N visible
24 Apr 5.9 00:17:13 17° WNW 00:17:13 17° WNW 00:19:05 10° NW visible
24 Apr 4.0 22:56:54 54° NE 22:56:54 54° NE 23:00:36 10° N visible
25 Apr 6.3 00:34:02 12° WNW 00:34:02 12° WNW 00:34:53 10° WNW visible
25 Apr 5.9 21:37:34 10° ENE 21:37:40 10° ENE 21:37:46 10° ENE visible
25 Apr 3.9 23:13:43 63° NNW 23:13:43 63° NNW 23:17:22 10° NNW visible
26 Apr 5.5 21:53:25 14° ENE 21:54:09 15° ENE 21:56:32 10° NNE visible
26 Apr 4.3 23:30:32 50° NW 23:30:32 50° NW 23:34:02 10° NNW visible
27 Apr 5.1 22:10:13 20° ENE 22:10:41 21° ENE 22:13:54 10° NNE visible
27 Apr 4.9 23:47:21 35° WNW 23:47:21 35° WNW 23:50:34 10° NNW visible
